Location: Woodhurst
(52.3667°N, 0.0667°W)
Time: 11:44:11
(UTC+00:00)

ASTEX 1 - Pass Details

Date: 19 May 2025
Orbit: 715 x 734 km, 92.7° (Epoch: 12 June)

Event Time Altitude Azimuth Distance (km) Brightness Sun altitude
Rises 23:16:51 0° 11° (N) 3,161 8.0 -17.1°
Reaches altitude 10° 23:19:19 10° 19° (NNE) 2,238 6.9 -17.2°
Maximum altitude 23:23:56 38° 88° (E) 1,105 4.2 -17.3°
Enters shadow 23:26:10 25° 138° (SE) 1,454 4.5 -17.3°
